Location: ????????
(55.0559°N, 39.1270°E)
Time: 01:12:45
(UTC+00:00)

CZ-2D R/B - Pass Details

Date: 15 November 2025
Orbit: 788 x 842 km, 98.9° (Epoch: 12 December)

Event Time Altitude Azimuth Distance (km) Brightness Sun altitude
Rises 02:13:34 0° 11° (N) 3,331 5.4 -22.8°
Reaches altitude 10° 02:16:34 10° 354° (N) 2,387 4.5 -22.4°
Enters shadow 02:18:01 15° 340° (NNW) 2,052 4.0 -22.2°
